Location: Strawberry
(45.6646°N, 111.9596°W)
Time: 23:54:55
(UTC+00:00)

Courier 1B Rocket - Pass Details

Date: 12 October 2022
Orbit: 920 x 1202 km, 28.3° (Epoch: 03 December)

Event Time Altitude Azimuth Distance (km) Brightness Sun altitude
Rises 01:48:04 0° 246° (WSW) 3,944 9.5 -11.1°
Reaches altitude 10° 01:52:06 10° 227° (SW) 2,927 8.2 -11.8°
Maximum altitude 01:56:12 16° 191° (SSW) 2,431 7.2 -12.5°
Drops below altitude 10° 02:00:10 10° 156° (SSE) 2,801 7.1 -13.2°
Enters shadow 02:02:31 - 141° (SE) 3,326 7.4 -13.6°
Sets 02:03:53 0° 135° (SE) 3,694 - -13.9°
